Location: Unspecified
(0.0000°N, 0.0000°E)
Time: 09:57:33
(UTC+00:00)

CZ-3C DEB - Pass Details

Date: 13 March 2026
Orbit: 509 x 34331 km, 19.9° (Epoch: 18 April)

Event Time Altitude Azimuth Distance (km) Brightness Sun altitude
Rises 15:45:43 0° 292° (WNW) 3,094 ? 35.9°
Reaches altitude 10° 15:47:08 10° 292° (WNW) 2,481 ? 35.5°
Maximum altitude 15:52:15 88° 25° (NNE) 1,654 ? 34.2°
Drops below altitude 10° 16:32:25 10° 111° (ESE) 15,173 ? 24.2°
Sets 01:11:41 0° 81° (E) 13,139 ? -74.2°
